Location: Arpaise
(41.0333°N, 14.7333°E)
Time: 08:16:00
(UTC+00:00)

Cosmos 1315 Rocket - Pass Details

Date: 05 July 2020
Orbit: 530 x 568 km, 81.2° (Epoch: 05 August)

Event Time Altitude Azimuth Distance (km) Brightness Sun altitude
Rises 20:46:39 0° 352° (N) 2,753 7.5 -18.6°
Reaches altitude 10° 20:48:50 10° 354° (N) 1,858 6.4 -18.8°
Maximum altitude 20:52:56 73° 80° (E) 594 2.8 -19.2°
Enters shadow 20:53:52 51° 148° (SSE) 718 2.9 -19.3°
